#timestamp,LO_Frequency,Hit,StdDev 
1648191615.6,286046996.7,P
1648191635.4,286046997.4,P
1648191655.2,286046995.9,Y
1648191675.1,286046998.8,P
1648191676.0,286046998.8,N
1648191695.8,286046999.1,N
1648191715.7,286046999.2,N
1648191735.5,286046995.0,Y
1648191755.3,286046996.9,P
1648191775.2,286046997.2,P
1648191795.0,286046999.1,N
1648191795.9,286046999.1,N
1648191815.8,286046997.1,Y
1648191835.6,286047000.6,P
1648191855.4,286047011.9,P
1648191875.3,286047002.0,N
1648191895.1,286047000.2,N
1648191915.8,286047000.4,N
1648191935.7,286047002.3,N
1648191955.5,286047002.5,N
1648191975.4,286047001.9,N
1648191995.2,286046999.9,N
1648192015.0,286047000.8,N
1648192015.9,286047000.8,N
1648192035.8,286047000.8,N
1648192055.6,286046999.7,N
1648192075.4,286047002.5,N
1648192095.3,286047000.1,N
1648192115.1,286047000.8,N
1648192135.9,286046999.7,N
1648192155.7,286047002.1,N
1648192175.5,286047001.0,N
1648192195.4,286046999.0,N
1648192215.2,286046998.8,N
1648192235.0,286046998.9,N
1648192236.0,286046998.9,N
1648192255.8,286046998.3,N
1648192275.6,286046999.4,N
1648192295.5,286046998.1,N
1648192315.3,286046998.4,N
1648192335.1,286046998.9,N
1648192355.9,286046997.8,N
1648192375.7,286046997.4,N
1648192395.6,286046998.8,N
1648192415.4,286047000.7,N
1648192435.2,286047000.1,N
1648192455.1,286047001.1,N
1648192456.0,286047001.1,N
1648192475.8,286047011.9,Y
1648192495.6,286046996.8,P
1648192515.5,286046994.9,P
1648192535.3,286046995.1,N
1648192555.2,286046995.5,N
1648192575.0,286046997.7,N
1648192575.9,286046997.7,N
1648192595.7,286046995.8,N
1648192615.6,286046993.6,Y
1648192635.4,286046999.5,P
1648192655.3,286046996.6,N
1648192675.1,286046996.6,N
1648192695.9,286046996.5,N
1648192715.7,286046996.8,N
1648192735.5,286046996.6,Y
1648192755.4,286047002.5,P
1648192775.2,286047003.8,N
1648192795.0,286047004.1,N
1648192795.9,286047004.1,N
1648192815.8,286047004.0,N
1648192835.6,286047003.0,N
1648192855.5,286047004.3,N
1648192875.3,286047000.5,N
1648192895.1,286047002.5,N
1648192915.9,286047003.6,N
1648192935.7,286047005.7,N
1648192955.5,286047005.3,N
1648192975.4,286047003.2,N
1648192995.2,286047003.3,N
1648193015.1,286047004.8,N
1648193016.0,286047004.8,N
1648193035.8,286047005.6,N
1648193055.6,286047003.2,N
1648193075.5,286047004.6,N
1648193095.3,286047006.6,Y
1648193115.1,286047003.9,P
1648193135.9,286047003.3,P
1648193155.7,286047003.3,P
1648193175.6,286047005.5,Y
1648193195.4,286047001.0,P
1648193215.2,286046997.1,N
1648193235.1,286046997.8,N
1648193236.0,286046997.8,N
1648193255.8,286046994.9,N
1648193275.7,286046995.5,N
1648193295.5,286046995.4,N
1648193315.3,286046995.6,N
1648193335.2,286046995.9,N
1648193355.0,286046995.9,N
1648193355.9,286046995.9,N
1648193375.8,286046993.9,N
1648193395.6,286046993.8,N
1648193415.4,286046993.8,N
1648193435.3,286046995.9,N
1648193455.1,286046995.1,N
1648193475.8,286046997.5,N
1648193495.7,286046995.2,N
1648193515.5,286046993.6,N
1648193535.4,286046993.4,N
1648193555.2,286046993.6,N
1648193575.0,286046992.0,Y
1648193575.9,286046992.0,P
1648193595.8,286046997.6,N
1648193615.6,286046995.5,N
1648193635.4,286046997.6,N
1648193655.3,286046996.6,N
1648193675.1,286046998.8,N
1648193695.9,286047000.9,N
1648193715.7,286047001.0,N
1648193735.5,286046999.8,N
1648193755.4,286047002.3,N
1648193775.2,286047001.5,N
1648193795.0,286047005.9,N
1648193796.0,286047005.9,N
1648193815.8,286047003.5,N
1648193835.6,286047004.9,N
1648193855.5,286047007.2,N
1648193875.3,286047004.7,N
1648193895.1,286047006.4,N
1648193915.9,286047007.3,N
1648193935.7,286047006.0,N
1648193955.5,286047005.1,N
1648193975.4,286047004.1,N
1648193995.2,286047001.3,N
1648194015.1,286047005.9,N
1648194016.0,286047005.9,N
1648194035.8,286047003.5,N
1648194055.6,286047004.7,N
1648194075.5,286047007.6,N
1648194095.3,286047005.5,N
1648194115.2,286047003.1,N
1648194135.9,286047003.6,N
1648194155.7,286047004.1,N
1648194175.6,286047003.9,N
1648194195.4,286047004.2,N
1648194215.3,286047003.7,N
1648194235.1,286047003.9,N
1648194236.0,286047003.9,N
1648194255.8,286047001.7,N
1648194275.7,286047002.1,N
1648194295.5,286047003.7,N
1648194315.4,286047005.5,Y
1648194335.2,286047000.2,P
1648194355.0,286047000.4,N
1648194355.9,286047000.4,N
1648194375.8,286047000.4,N
1648194395.6,286047002.6,N
1648194415.4,286047002.3,N
1648194435.3,286047000.6,N
1648194455.1,286047002.2,N
1648194475.9,286047001.8,N
1648194495.7,286047001.0,N
1648194515.5,286047000.1,N
1648194535.4,286047001.9,N
1648194555.2,286047004.2,Y
1648194575.1,286047002.1,P
1648194576.0,286047002.1,P
1648194595.8,286047000.2,N
1648194615.6,286046999.1,N
1648194635.5,286047000.3,N
1648194655.3,286046998.5,N
1648194675.1,286046999.1,N
1648194695.9,286046998.6,N
1648194715.7,286047000.8,N
1648194735.6,286047001.1,N
1648194755.4,286047002.0,N
1648194775.2,286047000.7,N
1648194795.1,286046998.8,N
1648194796.0,286046998.8,N
1648194815.8,286046998.6,N
1648194835.6,286046998.3,N
1648194855.5,286047002.3,N
1648194875.3,286047000.2,N
1648194895.2,286047002.6,N
1648194915.9,286047000.4,N
1648194935.7,286047000.4,N
1648194955.6,286047001.2,N
1648194975.4,286047000.7,N
1648194995.2,286047002.8,N
1648195015.1,286047001.7,N
1648195016.0,286047001.7,N
1648195035.8,286047001.3,N
1648195055.7,286047002.4,N
1648195075.5,286047002.1,N
1648195095.3,286047003.2,N
1648195115.2,286047005.2,Y
1648195135.0,286047003.7,P
1648195135.9,286047003.7,N
1648195155.8,286047001.5,N
1648195175.6,286047002.1,N
1648195195.4,286047000.9,N
